Toronto Pearson, Ontario

7:08 PM EDT on October 23, 2019 (GMT -0400)
Toronto-Pearson International

Weather History for CYYZ - May, 2019

Change the Weather History Date:

Wednesday, May 22, 2019

  Actual Average Record
Temperature  
Mean Temperature 52 °F -  
Max Temperature 59 °F 72 °F 77 °F (2012)
Min Temperature 45 °F 50 °F 39 °F (2002)
Degree Days  
Heating Degree Days 13    
Growing Degree Days 2 (Base 50)    
Moisture  
Dew Point 38 °F    
Average Humidity 52    
Maximum Humidity 66    
Minimum Humidity 36    
Precipitation  
Precipitation 0.02 in 0.09 in - ()
Sea Level Pressure  
Sea Level Pressure 30.17 in    
Wind  
Wind Speed 9 mph ()    
Max Wind Speed 18 mph    
Max Gust Speed 31 mph    
Visibility 15.0 miles    
Events Rain    
Averages and records for this station are not official NWS values.
T = Trace of Precipitation, MM = Missing Value Source: Averaged Metar Reports

Daily Weather History Graph

Daily Weather History Graph

Search for Another Location

Airport or City:

Astronomy

May. 22, 2019 Rise Set
Actual Time 5:46 AM EDT 8:44 PM EDT
Civil Twilight 5:12 AM EDT 9:18 PM EDT
Nautical Twilight 4:29 AM EDT 10:01 PM EDT
Astronomical Twilight 3:38 AM EDT 10:52 PM EDT
Moon No Moon Rise 8:52 AM EDT (5/22)
Length of Visible Light 16h 05m
Length of Day
14h 57m
Waning Gibbous, 85% of the Moon is Illuminated
May 22
Waning Gibbous
May 26
Last Quarter
Jun 3
New
Jun 10
First Quarter
Jun 17
Full

Hourly Weather History & Observations

Time (EDT) Temp. Windchill Dew Point Humidity Pressure Visibility Wind Dir Wind Speed Gust Speed Precip Events Conditions
12:00 AM 53.6 °F - 35.6 °F 51% 30.20 in 15.0 mi NE 8.1 mph - N/A   Scattered Clouds
1:00 AM 51.8 °F - 35.6 °F 54% 30.21 in 15.0 mi NE 6.9 mph - N/A   Partly Cloudy
2:00 AM 52 °F - 36 °F 43% 30.21 in 15 mi ENE 8.1 mph - -   Clear
2:00 AM 51.8 °F - 35.6 °F 54% 30.21 in 15.0 mi ENE 6.9 mph - N/A   Partly Cloudy
3:00 AM 48.2 °F - 37.4 °F 66% 30.21 in 15.0 mi ENE 6.9 mph - N/A   Clear
4:00 AM 46.4 °F - 35.6 °F 66% 30.21 in 15.0 mi Variable 2.3 mph - N/A   Clear
5:00 AM 47 °F - 36 °F 55% 30.22 in 15 mi South 6.9 mph - -  
5:00 AM 46.4 °F 44.3 °F 35.6 °F 66% 30.22 in 15.0 mi South 4.6 mph - N/A   Mostly Cloudy
6:00 AM 48.2 °F - 37.4 °F 66% 30.22 in 15.0 mi ENE 11.5 mph - N/A   Mostly Cloudy
7:00 AM 50.0 °F - 39.2 °F 66% 30.22 in 15.0 mi East 12.7 mph - N/A   Mostly Cloudy
8:00 AM 53 °F - 38 °F 46% 30.25 in 15 mi East 6.9 mph - -   Scattered Clouds
8:00 AM 53.6 °F - 39.2 °F 58% 30.25 in 15.0 mi East 5.8 mph - N/A   Mostly Cloudy
9:00 AM 55.4 °F - 39.2 °F 54% 30.27 in 15.0 mi SE 10.4 mph - N/A   Overcast
10:00 AM 57.2 °F - 39.2 °F 51% 30.24 in 15.0 mi East 16.1 mph - N/A   Overcast
11:00 AM 57 °F - 38 °F 37% 30.25 in 15 mi East 15.0 mph - -   Overcast
11:00 AM 57.2 °F - 37.4 °F 48% 30.25 in 15.0 mi East 16.1 mph 28.8 mph N/A   Overcast
12:00 PM 59.0 °F - 39.2 °F 48% 30.23 in 15.0 mi East 11.5 mph 21.9 mph N/A   Overcast
1:00 PM 59.0 °F - 41.0 °F 51% 30.23 in 15.0 mi ESE 11.5 mph 24.2 mph N/A   Overcast
2:00 PM 56 °F - 42 °F 48% 30.20 in 15 mi East 15.0 mph - -   Overcast
2:00 PM 55.4 °F - 41.0 °F 58% 30.20 in 15.0 mi ESE 9.2 mph 29.9 mph N/A   Overcast
3:00 PM 59.0 °F - 37.4 °F 45% 30.17 in 15.0 mi East 17.3 mph 31.1 mph N/A   Overcast
3:39 PM 57.2 °F - 37.4 °F 48% 30.17 in 15.0 mi East 18.4 mph 27.6 mph N/A Rain Light Rain
4:00 PM 55.4 °F - 41.0 °F 58% 30.15 in 15.0 mi East 13.8 mph 24.2 mph N/A Rain Light Rain
4:21 PM 55.4 °F - 39.2 °F 54% 30.13 in 15.0 mi East 17.3 mph 27.6 mph N/A   Overcast
5:00 PM 56 °F - 37 °F 36% 30.12 in 15 mi East 16.1 mph - -   Overcast
5:00 PM 55.4 °F - 37.4 °F 51% 30.12 in 15.0 mi East 16.1 mph 25.3 mph N/A   Overcast
6:00 PM 57.2 °F - 35.6 °F 44% 30.09 in 15.0 mi East 18.4 mph 27.6 mph N/A   Overcast
7:00 PM 55.4 °F - 35.6 °F 47% 30.09 in 15.0 mi East 17.3 mph 24.2 mph N/A   Overcast
7:07 PM 55.4 °F - 35.6 °F 47% 30.10 in 15.0 mi ESE 11.5 mph 23.0 mph N/A Rain Light Rain Showers
7:24 PM 55.4 °F - 37.4 °F 51% 30.10 in 15.0 mi ESE 11.5 mph 19.6 mph N/A   Overcast
8:00 PM 55 °F - 38 °F 41% 30.10 in 15 mi East 16.1 mph - - Rain Light Rain Showers
8:00 PM 55.4 °F - 37.4 °F 51% 30.10 in 15.0 mi East 15.0 mph 20.7 mph N/A   Overcast
9:00 PM 55.4 °F - 39.2 °F 54% 30.08 in 15.0 mi ENE 8.1 mph - N/A   Mostly Cloudy
10:00 PM 53.6 °F - 39.2 °F 58% 30.07 in 15.0 mi East 13.8 mph - N/A   Scattered Clouds
11:00 PM 52 °F - 39 °F 51% 30.07 in 15 mi East 10.4 mph - -  
11:00 PM 51.8 °F - 39.2 °F 62% 30.07 in 15.0 mi East 10.4 mph - N/A   Partly Cloudy